"Platform","Muskegon M20 ReCON Buoy"
"NDBC ID","45161"
"Latitude (deg)",43.17967
"Longitude (deg)",-86.35752
"Water Depth (m)",22
"Sensor Device","System Power Controller board voltage input"
"Sensor Type","Voltage to underwater hub"
"Sensor Units","voltage"
"Measurement","A sample"
"Time means","Time at sample (UTC time zone)"

"Note:","This data was collected for research purposes."
"Note:","Minimal quality checking has been performed so data may contain known or unknown errors."
"Note:","Data provided by NOAA. Please credit NOAA."
"Note:","For more info see www.glerl.noaa.gov/res/recon"

"Time (UTC)","To U/W Hub"
"YYYY/MM/DD HH:MM","volts"
2016/05/02 18:18, 49.25
2016/05/02 18:38, 51.12
2016/05/02 18:58, 49.12
2016/05/02 19:18, 46.89
2016/05/02 19:38, 50.91
2016/05/02 19:58, 49.53
2016/05/02 20:18, 49.96
2016/05/02 20:38, 51.28
2016/05/02 20:58, 50.94
2016/05/02 21:18, 47.99
2016/05/02 21:38, 51.28
2016/05/02 21:58, 51.26
2016/05/02 22:18, 51.30
2016/05/02 22:38, 51.33
2016/05/02 22:58, 51.26
2016/05/02 23:18, 51.25
2016/05/02 23:38, 50.64
2016/05/02 23:58, 51.24
2016/05/03 00:18, 51.24
2016/05/03 00:38, 51.24
2016/05/03 00:58, 51.24
2016/05/03 01:18, 51.25
2016/05/03 01:38, 51.24
2016/05/03 01:58, 51.24
2016/05/03 02:18, 51.25
2016/05/03 02:38, 51.24
2016/05/03 02:58, 51.24
2016/05/03 03:18, 51.24
2016/05/03 03:38, 51.25
2016/05/03 03:58, 51.26
2016/05/03 04:18, 51.24
2016/05/03 04:38, 51.24
2016/05/03 04:58, 51.24
2016/05/03 05:18, 51.24
2016/05/03 05:38, 51.25
2016/05/03 05:58, 51.24
2016/05/03 06:18, 51.25
2016/05/03 06:38, 51.24
2016/05/03 06:58, 51.24
2016/05/03 07:18, 51.24
2016/05/03 07:38, 51.24
2016/05/03 07:58, 51.24
2016/05/03 08:18, 51.25
2016/05/03 08:38, 51.24
2016/05/03 08:58, 51.24
2016/05/03 09:18, 51.25
2016/05/03 09:38, 51.25
2016/05/03 09:58, 51.25
2016/05/03 10:18, 51.25
2016/05/03 10:38, 51.24
2016/05/03 10:58, 51.31
2016/05/03 11:18, 49.97
2016/05/03 11:38, 47.88
2016/05/03 11:58, 47.81
2016/05/03 12:18, 47.26
2016/05/03 12:38, 48.96
2016/05/03 12:58, 47.15
2016/05/03 13:18, 46.84
2016/05/03 13:38, 46.39
2016/05/03 13:58, 45.72
2016/05/03 14:18, 45.72
2016/05/03 14:38, 48.16
2016/05/03 14:58, 46.38
2016/05/03 15:18, 46.50
2016/05/03 15:38, 46.81
2016/05/03 15:58, 46.77
2016/05/03 16:18, 47.13
2016/05/03 16:38, 49.23
2016/05/03 16:58, 47.29
2016/05/03 17:18, 47.70
2016/05/03 17:38, 47.67
2016/05/03 17:58, 47.51
2016/05/03 18:18, 47.15
2016/05/03 18:38, 49.24
2016/05/03 18:58, 47.01
2016/05/03 19:18, 46.17
2016/05/03 19:38, 46.94
2016/05/03 19:58, 46.20
2016/05/03 20:18, 47.67
2016/05/03 20:38, 48.61
2016/05/03 20:58, 44.74
2016/05/03 21:18, 47.81
2016/05/03 21:38, 47.97
2016/05/03 21:58, 48.17
2016/05/03 22:18, 50.43
2016/05/03 22:38, 51.31
2016/05/03 22:58, 51.25
2016/05/03 23:18, 51.25
2016/05/03 23:38, 51.24
2016/05/03 23:58, 51.25
2016/05/04 00:18, 51.25
2016/05/04 00:38, 51.24
2016/05/04 00:58, 51.24
2016/05/04 01:18, 51.24
2016/05/04 01:38, 51.24
2016/05/04 01:58, 51.24
2016/05/04 02:18, 51.25
2016/05/04 02:38, 51.24
2016/05/04 02:58, 51.24
2016/05/04 03:18, 51.24
2016/05/04 03:38, 51.24
2016/05/04 03:58, 51.24
2016/05/04 04:18, 51.25
2016/05/04 04:38, 51.24
2016/05/04 04:58, 51.24
2016/05/04 05:18, 51.25
2016/05/04 05:38, 51.25
2016/05/04 05:58, 51.24
2016/05/04 06:18, 51.25
2016/05/04 06:38, 51.24
2016/05/04 06:58, 51.24
2016/05/04 07:18, 51.24
2016/05/04 07:38, 51.24
2016/05/04 07:58, 51.25
2016/05/04 08:18, 51.25
2016/05/04 08:38, 51.24
2016/05/04 08:58, 51.24
2016/05/04 09:18, 51.24
2016/05/04 09:38, 51.25
2016/05/04 09:58, 51.25
2016/05/04 10:18, 51.24
2016/05/04 10:38, 51.24
2016/05/04 10:58, 51.25
2016/05/04 11:18, 51.25
2016/05/04 11:38, 51.24
2016/05/04 11:58, 51.24
2016/05/04 12:18, 51.25
2016/05/04 12:38, 51.24
2016/05/04 12:58, 51.25
2016/05/04 13:18, 51.26
2016/05/04 13:38, 51.26
2016/05/04 13:58, 51.25
2016/05/04 14:18, 51.27
2016/05/04 14:38, 51.26
2016/05/04 14:58, 51.24
2016/05/04 15:18, 51.26
2016/05/04 15:38, 51.25
2016/05/04 15:58, 51.26
2016/05/04 16:18, 51.27
2016/05/04 16:38, 51.28
2016/05/04 16:58, 51.26
2016/05/04 17:18, 51.31
2016/05/04 17:38, 51.29
2016/05/04 17:58, 51.30
2016/05/04 18:18, 51.26
2016/05/04 18:38, 51.27
2016/05/04 18:58, 51.26
2016/05/04 19:18, 51.29
2016/05/04 19:38, 51.31
2016/05/04 19:58, 51.33
2016/05/04 20:18, 51.31
2016/05/04 20:38, 51.26
2016/05/04 20:58, 51.27
2016/05/04 21:18, 51.25
2016/05/04 21:38, 51.27
2016/05/04 21:58, 51.26
2016/05/04 22:18, 51.26
2016/05/04 22:38, 51.25
2016/05/04 22:58, 51.25
2016/05/04 23:18, 51.25
2016/05/04 23:38, 51.26
2016/05/04 23:58, 51.25
2016/05/05 00:18, 51.25
2016/05/05 00:38, 51.24
2016/05/05 00:58, 51.25
2016/05/05 01:18, 51.24
2016/05/05 01:38, 51.25
2016/05/05 01:58, 51.25
2016/05/05 02:18, 51.25
2016/05/05 02:38, 51.24
2016/05/05 02:58, 51.24
2016/05/05 03:18, 51.25
2016/05/05 03:38, 51.24
2016/05/05 03:58, 51.24
2016/05/05 04:18, 51.25
2016/05/05 04:38, 51.24
2016/05/05 04:58, 51.25
2016/05/05 05:18, 51.25
2016/05/05 05:38, 51.24
2016/05/05 05:58, 51.24
2016/05/05 06:18, 51.24
2016/05/05 10:58, 51.26
2016/05/05 11:18, 51.34
2016/05/05 11:38, 51.01
2016/05/05 11:58, 49.47
2016/05/05 12:18, 48.13
2016/05/05 12:38, 49.28
2016/05/05 12:58, 46.64
2016/05/05 13:18, 46.90
2016/05/05 13:38, 46.70
2016/05/05 13:58, 46.34
2016/05/05 14:18, 46.65
2016/05/05 14:38, 48.29
2016/05/05 14:58, 46.28
2016/05/05 15:18, 47.28
2016/05/05 15:38, 47.37
2016/05/05 15:58, 47.78
2016/05/05 16:18, 47.87
2016/05/05 16:38, 49.82
2016/05/05 16:58, 48.30
2016/05/05 17:18, 50.22
2016/05/05 17:38, 50.13
2016/05/05 17:58, 50.08
2016/05/05 18:18, 49.89
2016/05/05 18:38, 49.51
2016/05/05 18:58, 49.18
2016/05/05 19:18, 49.24
2016/05/05 19:38, 48.36
2016/05/05 19:58, 48.34
2016/05/05 20:18, 45.98
2016/05/05 20:38, 46.34
2016/05/05 20:58, 46.25
2016/05/05 21:18, 45.88
2016/05/05 21:38, 45.85
2016/05/05 21:58, 45.60
2016/05/05 22:18, 45.61
2016/05/05 22:38, 45.88
2016/05/05 22:58, 46.38
2016/05/05 23:18, 47.90
2016/05/05 23:38, 48.30
2016/05/05 23:58, 51.05
2016/05/06 00:18, 51.30
2016/05/06 00:38, 51.26
2016/05/06 00:58, 51.25
2016/05/06 01:18, 51.26
2016/05/06 01:38, 51.24
2016/05/06 01:58, 51.24
2016/05/06 02:18, 51.25
2016/05/06 02:38, 51.25
2016/05/06 02:58, 51.24
2016/05/06 03:18, 51.25
2016/05/06 03:38, 51.24
2016/05/06 03:58, 51.25
2016/05/06 04:18, 51.24
2016/05/06 04:38, 51.24
2016/05/06 04:58, 51.25
2016/05/06 05:18, 51.24
2016/05/06 05:38, 51.25
2016/05/06 05:58, 51.26
2016/05/06 06:18, 51.25
2016/05/06 06:38, 51.25
2016/05/06 06:58, 51.24
2016/05/06 07:18, 51.24
2016/05/06 07:38, 51.25
2016/05/06 07:58, 51.25
2016/05/06 08:18, 51.24
2016/05/06 08:38, 51.25
2016/05/06 08:58, 51.25
2016/05/06 09:18, 51.24
2016/05/06 09:38, 51.24
2016/05/06 09:58, 51.25
2016/05/06 10:18, 51.24
2016/05/06 10:38, 51.25
2016/05/06 10:58, 51.25
2016/05/06 11:18, 51.27
2016/05/06 11:38, 51.29
2016/05/06 11:58, 51.35
2016/05/06 12:18, 51.34
2016/05/06 12:38, 48.02
2016/05/06 12:58, 46.68
2016/05/06 13:18, 45.89
2016/05/06 13:38, 45.69
2016/05/06 13:58, 45.32
2016/05/06 14:18, 45.78
2016/05/06 14:38, 47.61
2016/05/06 14:58, 45.89
2016/05/06 15:18, 46.70
2016/05/06 15:38, 46.51
2016/05/06 15:58, 46.74
2016/05/06 16:18, 47.20
2016/05/06 16:38, 47.07
2016/05/06 16:58, 46.83
2016/05/06 17:18, 47.16
2016/05/06 17:38, 47.02
2016/05/06 17:58, 46.74
2016/05/06 18:18, 47.70
2016/05/06 18:38, 48.32
2016/05/06 18:58, 47.24
2016/05/06 19:18, 46.63
2016/05/06 19:38, 46.32
2016/05/06 19:58, 46.58
2016/05/06 20:18, 46.53
2016/05/06 20:38, 46.73
2016/05/06 20:58, 46.43
2016/05/06 21:18, 46.22
2016/05/06 21:38, 46.27
2016/05/06 21:58, 46.70
2016/05/06 22:18, 46.20
2016/05/06 22:38, 46.68
2016/05/06 22:58, 48.24
2016/05/06 23:18, 48.07
2016/05/06 23:38, 48.56
2016/05/06 23:58, 49.53
2016/05/07 00:18, 51.02
2016/05/07 00:38, 51.24
2016/05/07 00:58, 51.25
2016/05/07 01:18, 51.25
2016/05/07 01:38, 51.24
2016/05/07 01:58, 51.25
2016/05/07 02:18, 51.24
2016/05/07 02:38, 51.25
2016/05/07 02:58, 51.25
2016/05/07 03:18, 51.25
2016/05/07 03:38, 51.25
2016/05/07 03:58, 51.25
2016/05/07 04:18, 51.25
2016/05/07 04:38, 51.24
2016/05/07 04:58, 51.25
2016/05/07 05:18, 51.25
2016/05/07 05:38, 51.24
2016/05/07 05:58, 51.24
2016/05/07 06:18, 51.24
2016/05/07 06:38, 51.24
2016/05/07 06:58, 51.25
2016/05/07 07:18, 51.24
2016/05/07 07:38, 51.25
2016/05/07 07:58, 51.24
2016/05/07 08:18, 51.25
2016/05/07 08:38, 51.24
2016/05/07 08:58, 51.24
2016/05/07 09:18, 51.24
2016/05/07 09:38, 51.24
2016/05/07 09:58, 51.24
2016/05/07 10:18, 51.24
2016/05/07 10:38, 51.24
2016/05/07 10:58, 51.24
2016/05/07 11:18, 51.25
2016/05/07 11:38, 51.25
2016/05/07 11:58, 51.32
2016/05/07 12:18, 51.34
2016/05/07 12:38, 51.26
2016/05/07 12:58, 51.35
2016/05/07 13:18, 51.31
2016/05/07 13:38, 51.34
2016/05/07 13:58, 50.29
2016/05/07 14:18, 47.72
2016/05/07 14:38, 49.50
2016/05/07 14:58, 46.56
2016/05/07 15:18, 46.59
2016/05/07 15:38, 47.44
2016/05/07 15:58, 46.50
2016/05/07 16:18, 47.68
2016/05/07 16:38, 48.87
2016/05/07 16:58, 47.43
2016/05/07 17:18, 48.12
2016/05/07 17:38, 47.35
2016/05/07 17:58, 47.66
2016/05/07 18:18, 47.17
2016/05/07 18:38, 48.63
2016/05/07 18:58, 47.40
2016/05/07 19:18, 46.88
2016/05/07 19:38, 46.44
2016/05/07 19:58, 46.62
2016/05/07 20:18, 46.20
2016/05/07 20:38, 48.02
2016/05/07 20:58, 47.22
2016/05/07 21:18, 46.47
2016/05/07 21:38, 46.40
2016/05/07 21:58, 46.51
2016/05/07 22:18, 46.28
2016/05/07 22:38, 45.79
2016/05/07 22:58, 45.78
2016/05/07 23:18, 46.20
2016/05/07 23:38, 47.66
2016/05/07 23:58, 48.25
2016/05/08 00:18, 51.32
2016/05/08 00:38, 51.30
2016/05/08 00:58, 51.25
2016/05/08 01:18, 51.25
2016/05/08 01:38, 51.25
2016/05/08 01:58, 51.26
2016/05/08 02:18, 51.24
2016/05/08 02:38, 51.25
2016/05/08 02:58, 51.25
2016/05/08 03:18, 51.24
2016/05/08 03:38, 51.25
2016/05/08 03:58, 51.24
2016/05/08 04:18, 51.25
2016/05/08 04:38, 51.25
2016/05/08 04:58, 51.24
2016/05/08 05:18, 51.25
2016/05/08 05:38, 51.24
2016/05/08 05:58, 51.24
2016/05/08 06:18, 51.24
2016/05/08 06:38, 51.25
2016/05/08 06:58, 51.25
2016/05/08 07:18, 51.25
2016/05/08 07:38, 51.25
2016/05/08 07:58, 51.25
2016/05/08 08:18, 51.25
2016/05/08 08:38, 51.24
2016/05/08 08:58, 51.25
2016/05/08 09:18, 51.25
2016/05/08 09:38, 51.24
2016/05/08 09:58, 51.24
2016/05/08 10:18, 51.24
2016/05/08 10:38, 51.26
2016/05/08 10:58, 51.31
2016/05/08 11:18, 51.26
2016/05/08 11:38, 51.34
2016/05/08 11:58, 48.24
2016/05/08 12:18, 51.31
2016/05/08 12:38, 46.03
2016/05/08 12:58, 46.23
2016/05/08 13:18, 46.13
2016/05/08 13:38, 46.77
2016/05/08 13:58, 47.55
2016/05/08 14:18, 48.57
2016/05/08 14:38, 50.17
2016/05/08 14:58, 45.50
2016/05/08 15:18, 47.28
2016/05/08 15:38, 45.35
2016/05/08 15:58, 45.58
2016/05/08 16:18, 46.66
2016/05/08 16:38, 46.63
2016/05/08 16:58, 46.44
2016/05/08 17:18, 47.25
2016/05/08 17:38, 47.38
2016/05/08 17:58, 47.12
2016/05/08 18:18, 47.16
2016/05/08 18:38, 49.37
2016/05/08 18:58, 47.43
2016/05/08 19:18, 46.36
2016/05/08 19:38, 46.35
2016/05/08 19:58, 46.85
2016/05/08 20:18, 46.18
2016/05/08 20:38, 46.27
2016/05/08 20:58, 47.01
2016/05/08 21:18, 46.15
2016/05/08 21:38, 46.36
2016/05/08 21:58, 46.70
2016/05/08 22:18, 46.28
2016/05/08 22:38, 46.67
2016/05/08 22:58, 46.69
2016/05/08 23:18, 46.87
2016/05/08 23:38, 47.86
2016/05/08 23:58, 48.92
2016/05/09 00:18, 51.32
2016/05/09 00:38, 51.24
2016/05/09 00:58, 51.24
2016/05/09 01:18, 51.25
2016/05/09 01:38, 51.25
2016/05/09 01:58, 51.25
2016/05/09 02:18, 51.24
2016/05/09 02:38, 51.24
2016/05/09 02:58, 51.25
2016/05/09 03:18, 51.25
2016/05/09 03:38, 51.25
2016/05/09 03:58, 51.24
2016/05/09 04:18, 51.25
2016/05/09 04:38, 51.25
2016/05/09 04:58, 51.24
2016/05/09 05:18, 51.25
2016/05/09 05:38, 51.24
2016/05/09 05:58, 51.24
2016/05/09 06:18, 51.25
2016/05/09 06:38, 51.24
2016/05/09 06:58, 51.25
2016/05/09 07:18, 51.25
2016/05/09 07:38, 51.25
2016/05/09 07:58, 51.25
2016/05/09 08:18, 51.24
2016/05/09 08:38, 51.24
2016/05/09 08:58, 51.24
2016/05/09 09:18, 51.24
2016/05/09 09:38, 51.24
2016/05/09 09:58, 51.24
2016/05/09 10:18, 51.25
2016/05/09 10:38, 51.24
2016/05/09 10:58, 51.24
2016/05/09 11:18, 51.31
2016/05/09 11:38, 51.34
2016/05/09 11:58, 51.33
2016/05/09 12:18, 50.23
2016/05/09 12:38, 48.89
2016/05/09 12:58, 49.25
2016/05/09 13:18, 48.34
2016/05/09 13:38, 49.58
2016/05/09 13:58, 49.64
2016/05/09 14:18, 45.80
2016/05/09 14:38, 47.32
2016/05/09 14:58, 46.00
2016/05/09 15:18, 46.19
2016/05/09 15:38, 45.75
2016/05/09 15:58, 47.17
2016/05/09 16:18, 46.29
2016/05/09 16:38, 47.01
2016/05/09 16:58, 46.49
2016/05/09 17:18, 47.04
2016/05/09 17:38, 46.70
2016/05/09 17:58, 46.92
2016/05/09 18:18, 46.55
2016/05/09 18:38, 48.52
2016/05/09 18:58, 46.84
2016/05/09 19:18, 46.50
2016/05/09 19:38, 46.77
2016/05/09 19:58, 46.88
2016/05/09 20:18, 47.07
2016/05/09 20:38, 47.98
2016/05/09 20:58, 47.74
2016/05/09 21:18, 48.75
2016/05/09 21:38, 50.42
2016/05/09 21:58, 50.62
2016/05/09 22:18, 51.20
2016/05/09 22:38, 50.42
2016/05/09 22:58, 48.91
2016/05/09 23:18, 49.41
2016/05/09 23:38, 50.44
2016/05/09 23:58, 51.25
2016/05/10 00:18, 51.24
2016/05/10 00:38, 51.25
2016/05/10 00:58, 51.25
2016/05/10 01:18, 51.25
2016/05/10 01:38, 51.25
2016/05/10 01:58, 51.25
2016/05/10 02:18, 51.24
2016/05/10 02:38, 51.24
2016/05/10 02:58, 51.24
2016/05/10 03:18, 51.24
2016/05/10 03:38, 51.25
2016/05/10 03:58, 51.24
2016/05/10 04:18, 51.24
2016/05/10 04:38, 51.24
2016/05/10 04:58, 51.24
2016/05/10 05:18, 51.24
2016/05/10 05:38, 51.24
2016/05/10 05:58, 51.24
2016/05/10 06:18, 51.24
2016/05/10 06:38, 51.24
2016/05/10 06:58, 51.24
2016/05/10 07:18, 51.24
2016/05/10 07:38, 51.24
2016/05/10 07:58, 51.24
2016/05/10 08:18, 51.25
2016/05/10 08:38, 51.25
2016/05/10 08:58, 51.24
2016/05/10 09:18, 51.25
2016/05/10 09:38, 51.25
2016/05/10 09:58, 51.24
2016/05/10 10:18, 51.25
2016/05/10 10:38, 51.25
2016/05/10 10:58, 51.24
2016/05/10 11:18, 51.25
2016/05/10 11:38, 51.24
2016/05/10 11:58, 51.24
2016/05/10 12:18, 51.25
2016/05/10 12:38, 51.25
2016/05/10 12:58, 51.31
2016/05/10 13:18, 51.32
2016/05/10 13:38, 51.32
2016/05/10 13:58, 51.30
2016/05/10 14:18, 51.26
2016/05/10 14:38, 51.29
2016/05/10 14:58, 51.25
2016/05/10 15:18, 51.28
2016/05/10 15:38, 51.29
2016/05/10 15:58, 51.25
2016/05/10 16:18, 51.24
2016/05/10 16:38, 51.25
2016/05/10 16:58, 51.27
2016/05/10 17:18, 51.27
2016/05/10 17:38, 51.24
2016/05/10 17:58, 51.25
2016/05/10 18:18, 51.25
2016/05/10 18:38, 51.24
2016/05/10 18:58, 51.25
2016/05/10 19:18, 51.26
2016/05/10 19:38, 51.26
2016/05/10 19:58, 51.26
2016/05/10 20:18, 51.25
2016/05/10 20:38, 51.26
2016/05/10 20:58, 51.26
2016/05/10 21:18, 51.25
2016/05/10 21:38, 51.25
2016/05/10 21:58, 51.25
2016/05/10 22:18, 51.28
2016/05/10 22:38, 51.24
2016/05/10 22:58, 51.25
2016/05/10 23:18, 51.25
2016/05/10 23:38, 51.24
2016/05/10 23:58, 51.24
2016/05/11 00:18, 51.25
2016/05/11 00:38, 51.25
2016/05/11 00:58, 51.25
2016/05/11 01:18, 51.25
2016/05/11 01:38, 51.24
2016/05/11 01:58, 51.25
2016/05/11 02:18, 51.25
2016/05/11 02:38, 51.24
2016/05/11 02:58, 51.24
2016/05/11 03:18, 51.24
2016/05/11 03:38, 51.24
2016/05/11 03:58, 51.25
2016/05/11 04:18, 51.25
2016/05/11 04:38, 51.25
2016/05/11 04:58, 51.24
2016/05/11 05:18, 51.24
2016/05/11 05:38, 51.24
2016/05/11 05:58, 51.24
2016/05/11 06:18, 51.24
2016/05/11 06:38, 51.25
2016/05/11 06:58, 51.24
2016/05/11 07:18, 51.25
2016/05/11 07:38, 51.24
2016/05/11 07:58, 51.24
2016/05/11 08:18, 51.25
2016/05/11 08:38, 51.24
2016/05/11 08:58, 51.24
2016/05/11 09:18, 51.24
2016/05/11 09:38, 51.25
2016/05/11 09:58, 51.25
2016/05/11 10:18, 51.24
2016/05/11 10:38, 51.24
2016/05/11 10:58, 51.25
2016/05/11 11:18, 51.33
2016/05/11 11:38, 51.25
2016/05/11 11:58, 51.25
2016/05/11 12:18, 51.26
2016/05/11 12:38, 51.28
2016/05/11 12:58, 51.25
2016/05/11 13:18, 51.26
2016/05/11 13:38, 51.30
2016/05/11 13:58, 51.29
2016/05/11 14:18, 51.26
2016/05/11 14:38, 51.28
2016/05/11 14:58, 50.92
2016/05/11 15:18, 49.78
2016/05/11 15:38, 49.63
2016/05/11 15:58, 47.69
2016/05/11 16:18, 47.82
2016/05/11 16:38, 47.62
2016/05/11 16:58, 47.75
2016/05/11 17:18, 47.52
2016/05/11 17:38, 47.34
2016/05/11 17:58, 47.60
2016/05/11 18:18, 47.05
2016/05/11 18:38, 49.06
2016/05/11 18:58, 47.34
2016/05/11 19:18, 47.37
2016/05/11 19:38, 46.80
2016/05/11 19:58, 45.96
2016/05/11 20:18, 46.57
2016/05/11 20:38, 45.38
2016/05/11 20:58, 49.30
2016/05/11 21:18, 45.81
2016/05/11 21:38, 46.76
2016/05/11 21:58, 49.55
2016/05/11 22:18, 46.11
2016/05/11 22:38, 49.85
2016/05/11 22:58, 47.55
2016/05/11 23:18, 47.08
2016/05/11 23:38, 50.07
2016/05/11 23:58, 50.30
2016/05/12 00:18, 51.25
2016/05/12 00:38, 51.24
2016/05/12 00:58, 51.25
2016/05/12 01:18, 51.25
2016/05/12 01:38, 51.24
2016/05/12 01:58, 51.25
2016/05/12 02:18, 51.24
2016/05/12 02:38, 51.24
2016/05/12 02:58, 51.25
2016/05/12 03:18, 51.24
2016/05/12 03:38, 51.25
2016/05/12 03:58, 51.24
2016/05/12 04:18, 51.24
2016/05/12 04:38, 51.25
2016/05/12 04:58, 51.24
2016/05/12 05:18, 51.24
2016/05/12 05:38, 51.24
2016/05/12 05:58, 51.25
2016/05/12 06:18, 51.25
2016/05/12 06:38, 51.25
2016/05/12 06:58, 51.24
2016/05/12 07:18, 51.25
2016/05/12 07:38, 51.24
2016/05/12 07:58, 51.24
2016/05/12 08:18, 51.24
2016/05/12 08:38, 51.24
2016/05/12 08:58, 51.24
2016/05/12 09:18, 51.24
2016/05/12 09:38, 51.24
2016/05/12 09:58, 51.24
2016/05/12 10:18, 51.24
2016/05/12 10:38, 51.24
2016/05/12 10:58, 51.24
2016/05/12 11:18, 51.24
2016/05/12 11:38, 51.24
2016/05/12 11:58, 51.25
2016/05/12 12:18, 51.24
2016/05/12 12:38, 51.24
2016/05/12 12:58, 51.25
2016/05/12 13:18, 51.26
2016/05/12 13:38, 51.24
2016/05/12 13:58, 49.07
2016/05/12 14:18, 49.47
2016/05/12 14:38, 47.84
2016/05/12 14:58, 48.34
2016/05/12 15:18, 48.78
2016/05/12 15:38, 50.47
2016/05/12 15:58, 50.19
2016/05/12 16:18, 51.25
2016/05/12 16:38, 49.52
2016/05/12 16:58, 47.90
2016/05/12 17:18, 47.38
2016/05/12 17:38, 51.31
2016/05/12 17:58, 51.24
2016/05/12 18:18, 51.25
2016/05/12 18:38, 51.25
2016/05/12 18:58, 51.26
2016/05/12 19:18, 51.26
2016/05/12 19:38, 51.24
2016/05/12 19:58, 51.26
2016/05/12 20:18, 51.24
2016/05/12 20:38, 51.25
2016/05/12 20:58, 50.41
2016/05/12 21:18, 50.10
2016/05/12 21:38, 50.66
2016/05/12 21:58, 51.00
2016/05/12 22:18, 49.25
2016/05/12 22:38, 49.86
2016/05/12 22:58, 51.02
2016/05/12 23:18, 50.20
2016/05/12 23:38, 51.24
2016/05/12 23:58, 51.26
2016/05/13 00:18, 51.25
2016/05/13 00:38, 51.24
2016/05/13 00:58, 51.25
2016/05/13 01:18, 51.25
2016/05/13 01:38, 51.25
2016/05/13 01:58, 51.24
2016/05/13 02:18, 51.25
2016/05/13 02:38, 51.24
2016/05/13 02:58, 51.25
2016/05/13 03:18, 51.24
2016/05/13 03:38, 51.24
2016/05/13 03:58, 51.25
2016/05/13 04:18, 51.24
2016/05/13 04:38, 51.24
2016/05/13 04:58, 51.25
2016/05/13 05:18, 51.24
2016/05/13 05:38, 51.25
2016/05/13 05:58, 51.25
2016/05/13 06:18, 51.24
2016/05/13 06:38, 51.24
2016/05/13 06:58, 51.24
2016/05/13 07:18, 51.25
2016/05/13 07:38, 51.25
2016/05/13 07:58, 51.25
2016/05/13 08:18, 51.24
2016/05/13 08:38, 51.25
2016/05/13 08:58, 51.25
2016/05/13 09:18, 51.25
2016/05/13 09:38, 51.25
2016/05/13 09:58, 51.24
2016/05/13 10:18, 51.24
2016/05/13 10:38, 51.24
2016/05/13 10:58, 51.24
2016/05/13 11:18, 51.24
2016/05/13 11:38, 49.50
2016/05/13 11:58, 47.20
2016/05/13 12:18, 51.25
2016/05/13 12:38, 50.97
2016/05/13 12:58, 46.34
2016/05/13 13:18, 46.01
2016/05/13 13:38, 45.45
2016/05/13 13:58, 46.15
2016/05/13 14:18, 49.15
2016/05/13 14:38, 48.51
2016/05/13 14:58, 46.65
2016/05/13 15:18, 47.06
2016/05/13 15:38, 47.04
2016/05/13 15:58, 46.54
2016/05/13 16:18, 47.34
2016/05/13 16:38, 46.62
2016/05/13 16:58, 47.75
2016/05/13 17:18, 47.23
2016/05/13 17:38, 47.48
2016/05/13 17:58, 47.17
2016/05/13 18:18, 47.16
2016/05/13 18:38, 49.03
2016/05/13 18:58, 46.73
2016/05/13 19:18, 47.81
2016/05/13 19:38, 49.61
2016/05/13 19:58, 50.25
2016/05/13 20:18, 50.19
2016/05/13 20:38, 51.27
2016/05/13 20:58, 51.29
2016/05/13 21:18, 51.25
2016/05/13 21:38, 51.24
2016/05/13 21:58, 51.24
2016/05/13 22:18, 51.24
2016/05/13 22:38, 51.25
2016/05/13 22:58, 51.24
2016/05/13 23:18, 51.24
2016/05/13 23:38, 51.25
2016/05/13 23:58, 51.26
2016/05/14 00:18, 51.24
2016/05/14 00:38, 51.24
2016/05/14 00:58, 51.24
2016/05/14 01:18, 51.24
2016/05/14 01:38, 51.24
2016/05/14 01:58, 51.24
2016/05/14 02:18, 51.25
2016/05/14 02:38, 51.25
2016/05/14 02:58, 51.24
2016/05/14 03:18, 51.24
2016/05/14 03:38, 51.25
2016/05/14 03:58, 51.25
2016/05/14 04:18, 51.25
2016/05/14 04:38, 51.25
2016/05/14 04:58, 51.24
2016/05/14 05:18, 51.24
2016/05/14 05:38, 51.25
2016/05/14 05:58, 51.24
2016/05/14 06:18, 51.24
2016/05/14 06:38, 51.24
2016/05/14 06:58, 51.24
2016/05/14 07:18, 51.25
2016/05/14 07:38, 51.24
2016/05/14 07:58, 51.25
2016/05/14 08:18, 51.24
2016/05/14 08:38, 51.24
2016/05/14 08:58, 51.25
2016/05/14 09:18, 51.25
2016/05/14 09:38, 51.25
2016/05/14 09:58, 51.24
2016/05/14 10:18, 51.24
2016/05/14 10:38, 51.24
2016/05/14 10:58, 51.25
2016/05/14 11:18, 51.25
2016/05/14 11:38, 51.24
2016/05/14 11:58, 51.25
2016/05/14 12:18, 51.27
2016/05/14 12:38, 51.27
2016/05/14 12:58, 51.28
2016/05/14 13:18, 51.33
2016/05/14 13:38, 50.82
2016/05/14 13:58, 51.34
2016/05/14 14:18, 51.33
2016/05/14 14:38, 51.29
2016/05/14 14:58, 51.36
2016/05/14 15:18, 47.93
2016/05/14 15:38, 50.88
2016/05/14 15:58, 47.91
2016/05/14 16:18, 47.22
2016/05/14 16:38, 50.46
2016/05/14 16:58, 46.86
2016/05/14 17:18, 46.83
2016/05/14 17:38, 50.94
2016/05/14 17:58, 46.78
2016/05/14 18:18, 47.87
2016/05/14 18:38, 49.61
2016/05/14 18:58, 48.30
2016/05/14 19:18, 48.53
2016/05/14 19:38, 49.73
2016/05/14 19:58, 47.06
2016/05/14 20:18, 48.42
2016/05/14 20:38, 48.39
2016/05/14 20:58, 45.57
2016/05/14 21:18, 49.98
2016/05/14 21:38, 47.61
2016/05/14 21:58, 50.38
2016/05/14 22:18, 51.34
2016/05/14 22:38, 51.32
2016/05/14 22:58, 51.24
2016/05/14 23:18, 51.25
2016/05/14 23:38, 51.24
2016/05/14 23:58, 51.24
2016/05/15 00:18, 51.25
2016/05/15 00:38, 51.25
2016/05/15 00:58, 51.25
2016/05/15 01:18, 51.24
2016/05/15 01:38, 51.25
2016/05/15 01:58, 51.24
2016/05/15 02:18, 51.25
2016/05/15 02:38, 51.24
2016/05/15 02:58, 51.25
2016/05/15 03:18, 51.24
2016/05/15 03:38, 51.24
2016/05/15 03:58, 51.25
2016/05/15 04:18, 51.24
2016/05/15 04:38, 51.25
2016/05/15 04:58, 51.25
2016/05/15 05:18, 51.24
2016/05/15 05:38, 51.24
2016/05/15 05:58, 51.24
2016/05/15 06:18, 51.25
2016/05/15 06:38, 51.25
2016/05/15 06:58, 51.25
2016/05/15 07:18, 51.24
2016/05/15 07:38, 51.25
2016/05/15 07:58, 51.25
2016/05/15 08:18, 51.25
2016/05/15 08:38, 51.25
2016/05/15 08:58, 51.25
2016/05/15 09:18, 51.24
2016/05/15 09:38, 51.25
2016/05/15 09:58, 51.25
2016/05/15 10:18, 51.25
2016/05/15 10:38, 51.25
2016/05/15 10:58, 51.24
2016/05/15 11:18, 51.25
2016/05/15 11:38, 51.25
2016/05/15 11:58, 51.26
2016/05/15 12:18, 51.27
2016/05/15 12:38, 51.34
2016/05/15 12:58, 51.34
2016/05/15 13:18, 50.68
2016/05/15 13:38, 51.28
2016/05/15 13:58, 48.65
2016/05/15 14:18, 48.97
2016/05/15 14:38, 48.53
2016/05/15 14:58, 48.32
2016/05/15 15:18, 48.47
2016/05/15 15:38, 48.09
2016/05/15 15:58, 49.43
2016/05/15 16:18, 48.54
2016/05/15 16:38, 49.14
2016/05/15 16:58, 49.07
2016/05/15 17:18, 49.21
2016/05/15 17:38, 49.01
2016/05/15 17:58, 48.49
2016/05/15 18:18, 48.10
2016/05/15 18:38, 49.71
2016/05/15 18:58, 47.34
2016/05/15 19:18, 47.17
2016/05/15 19:38, 46.93
2016/05/15 19:58, 46.75
2016/05/15 20:18, 46.30
2016/05/15 20:38, 46.31
2016/05/15 20:58, 45.97
2016/05/15 21:18, 46.14